Location: Équennes
(49.7375°N, 1.9622°E)
Time: 19:02:12
(UTC+00:00)

Cosmos 2278 - Pass Details

Date: 25 September 2023
Orbit: 838 x 853 km, 71.1° (Epoch: 08 December)

Event Time Altitude Azimuth Distance (km) Brightness Sun altitude
Rises 20:23:53 0° 280° (W) 3,406 7.9 -25.4°
Reaches altitude 10° 20:27:58 10° 309° (NW) 2,478 7.2 -26.0°
Maximum altitude 20:30:24 13° 334° (NNW) 2,292 6.7 -26.3°
Drops below altitude 10° 20:32:50 10° 0° (N) 2,485 6.5 -26.6°
Sets 20:36:57 0° 29° (NNE) 3,427 6.9 -27.2°
